This is the latest recevied weather packets stored in our database for station/object K5RWS. If no packets are shown the sender has not sent any weather packets the latest 10 day(s).
| Time | Temp. | Humidity | Pressure | Rain* | Wind** | Luminosity | Snow |
|---|---|---|---|---|---|---|---|
| 1777654876 | 12.78° C | 61% | 1020.8 hPa | 0 mm | - | 188 W/m² | - |
| 1777654573 | 12.78° C | 61% | 1020.8 hPa | 0 mm | - | 222 W/m² | - |
| 1777654270 | 12.78° C | 61% | 1020.4 hPa | 0 mm | - | 296 W/m² | - |
| 1777653969 | 12.22° C | 64% | 1020.4 hPa | 0 mm | - | 376 W/m² | - |
| 1777653665 | 11.67° C | 63% | 1020.4 hPa | 0 mm | - | 273 W/m² | - |
| 1777653361 | 11.67° C | 64% | 1020.3 hPa | 0 mm | - | 269 W/m² | - |
| 1777653058 | 12.22° C | 62% | 1020.7 hPa | 0 mm | - | 238 W/m² | - |
| 1777652755 | 12.22° C | 63% | 1020.4 hPa | 0 mm | - | 232 W/m² | - |
| 1777652452 | 11.67° C | 67% | 1020.3 hPa | 0 mm | - | 251 W/m² | - |
| 1777652149 | 11.67° C | 64% | 1020.4 hPa | 0 mm | - | 279 W/m² | - |
| 1777651845 | 12.78° C | 62% | 1020.1 hPa | 0 mm | - | 306 W/m² | - |
| 1777651543 | 13.33° C | 61% | 1020.3 hPa | 0 mm | - | 272 W/m² | - |
| 1777651239 | 12.78° C | 60% | 1020.3 hPa | 0 mm | - | 448 W/m² | - |
| 1777650936 | 12.22° C | 62% | 1020.3 hPa | 0 mm | - | 443 W/m² | - |
| 1777650633 | 11.67° C | 62% | 1020.1 hPa | 0 mm | - | 393 W/m² | - |
| 1777650330 | 11.67° C | 65% | 1020 hPa | 0 mm | - | 634 W/m² | - |
| 1777650026 | 11.11° C | 64% | 1020 hPa | 0 mm | - | 349 W/m² | - |
| 1777649719 | 10.56° C | 66% | 1019.8 hPa | 0 mm | - | 354 W/m² | - |
| 1777649415 | 11.67° C | 71% | 1020 hPa | 0 mm | - | 332 W/m² | - |
| 1777649112 | 11.67° C | 71% | 1020 hPa | 0 mm | - | 273 W/m² | - |
| 1777648810 | 11.11° C | 74% | 1020 hPa | 0 mm | - | 419 W/m² | - |
| 1777648506 | 10.56° C | 74% | 1019.8 hPa | 0 mm | - | 282 W/m² | - |
| 1777648203 | 10.56° C | 76% | 1019.8 hPa | 0 mm | - | 250 W/m² | - |
| 1777647898 | 10.56° C | 74% | 1020 hPa | 0 mm | - | 204 W/m² | - |
| 1777647595 | 10.56° C | 72% | 1019.6 hPa | 0 mm | - | 150 W/m² | - |
* Rain latest hour (hover to see other rain measurements)
** Current wind speed in m/s (hover to see current wind gust speed)